User: anonymous   Login
Location: Gamarra
(10.0780°N, 67.4929°W)
Time: 13:12:23
(UTC+00:00)
Language:

H-2A R/B - Orbit

View from above orbital plane
View from above orbital plane
View from above satellite
View from above satellite

Ground track
Ground track

The orbit data is extracted from the following two-line orbital elements,

1 26899U 01038B   24193.66792043  .00002395  00000-0  65022-3 0  9999
2 26899  28.0985  73.3952 7035679 136.6965 307.3657  2.59373303201593
Epoch (UTC): 11 July 2024 16:01:48
Eccentricity: 0.7035679
inclination: 28.0985°
perigee height: 255 km
apogee height: 31741 km
right ascension of ascending node: 73.3952°
argument of perigee: 136.6965°
revolutions per day: 2.59373303
mean anomaly at epoch: 307.3657°
orbit number at epoch: 20159

The dashed part of the orbit path shows where the satellite is in the earth's shadow,  

DLR